Preview of NWS' New Version of Forecast
This preview is not operational and should not be used for support decisions.
Latest weather observations around

Oklahoma City, Will Rogers World Airport (KOKC)

Using English Units (Switch to International System of Units)
Date/ Time (CDT) Wind (mph) Vis. (mi) Weather Sky Cond. Temp (°F) Rel. Humidity Wind Chill (°F) Heat Index (°F) Pressure Precip. (in)
Air Dwpt 6 hour Altimeter (inHg) Sea level (inHg) 1 hr 3 hr 6 hr
Max Min
Jun 19 14:52 6 10 Mostly Clear FEW030 FEW200 82 67     60%   85 29.78 29.74      
Jun 19 13:52 WSW 7 10 Mostly Cloudy FEW030 BKN070 79 66     65%   80 29.81 29.77      
Jun 19 12:52 WSW 8 10 Partly Cloudy FEW020 SCT095 SCT200 78 67     69%   79 29.83 29.78      
Jun 19 11:52 3 10 Mostly Cloudy FEW020 SCT090 BKN100 76 67     74%   77 29.84 29.8      
Jun 19 10:52 SW 5 10 Cloudy SCT018 OVC080 73 66     79%   74 29.85 29.8      
Jun 19 10:24 W 5 10 Mostly Cloudy BKN018 BKN075 72 66     82%   73 29.85        
Jun 19 09:52 W 3 10 Mostly Cloudy SCT013 BKN075 71 65     81%   72 29.85 29.81      
Jun 19 08:52 SSW 8 10 Partly Cloudy FEW005 SCT090 69 66     90%     29.84 29.8      
Jun 19 07:52 WNW 6 10 Mostly Cloudy BKN090 66 65     96%     29.81 29.76      
Jun 19 06:52 W 5 10 Partly Cloudy FEW050 SCT100 SCT250 63 63     100%     29.78 29.73     1
Jun 19 05:52 Calm 10 Mostly Cloudy FEW050 SCT100 SCT180 BKN250 62 62     100%     29.78 29.73      
Jun 19 04:52 SW 5 10 Mostly Cloudy FEW100 SCT180 BKN250 64 64     100%     29.78 29.74      
Jun 19 03:52 SSW 9 10 Mostly Cloudy SCT100 BKN180 BKN250 63 63     100%     29.79 29.74 0 1  
Jun 19 03:31 S 13 10 Cloudy SCT090 BKN110 BKN180 OVC250 64 64     100%     29.77   0    
Jun 19 03:17 ESE 11 10 Light Rain FEW040 SCT090 BKN110 OVC130 64 64     100%     29.75   0    
Jun 19 02:52 S 6 6 Thunderstorms and Rain and Fog/Mist SCT038 BKN080 BKN100 OVC130 64 64     100%     29.86 29.82 0    
Jun 19 01:52 WNW 9 5 Thunderstorms and Rain and Fog/Mist FEW006 BKN038 OVC090 66 63     90%     29.89 29.85 1    
Jun 19 01:35 S 5 2 Thunderstorms and Rain and Fog/Mist FEW006 BKN041 OVC070 64 64     100%     29.92   1    
Jun 19 01:27 5 1 Thunderstorms and Heavy Rain and Fog/Mist FEW006 BKN033 OVC065 64 63     96%     29.91   0    
Jun 19 01:21 Calm 0.75 Thunderstorms and Heavy Rain and Fog/Mist BKN030 BKN048 OVC075 65 64     97%     29.91   0    
Jun 19 01:14 NW 6 1.75 Thunderstorms and Heavy Rain and Fog/Mist BKN037 BKN048 OVC075 66 64     93%     29.93   0    
Jun 19 00:52 5 10 Thunderstorms SCT045 BKN065 BKN180 OVC250 75 70     84%   76 29.84 29.79      
Jun 19 00:44 S 5 10 Thunderstorms SCT045 BKN065 BKN180 OVC250 75 70     84%   76 29.83        
Jun 18 23:52 S 8 10 Cloudy SCT150 BKN180 OVC250 75 69     82%   76 29.83 29.78      
Jun 18 22:52 SSE 10 10 Cloudy FEW200 OVC250 75 69     82%   76 29.81 29.76      
Jun 18 21:52 S 7 10 Mostly Cloudy FEW200 BKN250 75 69     82%   76 29.81 29.76      
Jun 18 20:52 SSE 7 10 Mostly Cloudy FEW200 BKN250 77 69     77%   78 29.79 29.74      
Jun 18 19:52 S 8 10 Partly Cloudy FEW050 SCT250 83 67     59%   86 29.79 29.75      
Jun 18 18:52 S 13 10 Mostly Clear FEW050 FEW250 86 66     51%   88 29.79 29.75      
Jun 18 17:52 SSW 11 10 Mostly Clear FEW050 FEW250 87 66     50%   89 29.81 29.76      
Jun 18 16:52 S 11 10 Partly Cloudy FEW050 SCT250 88 67     50%   91 29.84 29.79      
Jun 18 15:52 S 10 10 Partly Cloudy SCT050 SCT250 87 67     51%   90 29.87 29.82      
Jun 18 14:52 SW 8 10 Partly Cloudy SCT045 SCT250 87 66     50%   89 29.89 29.84      
Jun 18 13:52 SSW 7 10 Partly Cloudy SCT040 SCT250 86 66     51%   88 29.91 29.86      
Jun 18 12:52 S 9 10 Mostly Cloudy SCT180 BKN250 84 69     61%   88 29.92 29.87      
Jun 18 11:52 3 10 Mostly Cloudy SCT150 BKN250 83 65     55%   85 29.93 29.89      
Jun 18 10:52 Calm 10 Mostly Cloudy BKN150 BKN250 82 69     65%   85 29.94 29.89      
Jun 18 09:52 SSW 7 10 Mostly Cloudy BKN150 BKN250 79 69     72%   80 29.94 29.9      
Jun 18 08:52 SSW 3 10 Mostly Cloudy SCT150 BKN250 73 69     87%   74 29.95 29.91      
Jun 18 07:52 S 3 10 Mostly Cloudy SCT150 BKN250 70 68     93%     29.92 29.88      
Jun 18 06:52 Calm 9 Mostly Cloudy SCT150 BKN250 66 66     100%     29.91 29.87      
Jun 18 05:52 S 6 9 Partly Cloudy SCT250 64 64     100%     29.92 29.87      
Jun 18 04:52 SSE 3 10 Partly Cloudy SCT250 64 64     100%     29.92 29.88      
Jun 18 03:52 ENE 3 10 Mostly Cloudy BKN250 70 68     93%     29.94 29.89      
Jun 18 02:52 WSW 6 10 Mostly Cloudy BKN250 67 66     97%     29.95 29.91      
Jun 18 01:52 ENE 3 10 Mostly Cloudy BKN250 70 67     90%     29.95 29.91      
Jun 18 00:52 Calm 10 Mostly Cloudy BKN250 72 67     84%   73 29.97 29.93      
Jun 17 23:52 Calm 10 Mostly Cloudy SCT200 BKN250 70 67     90%     29.96 29.92      
Jun 17 22:52 E 6 10 Mostly Clear FEW200 71 67     87%   72 29.94 29.9      
Jun 17 21:52 ESE 6 10 Mostly Clear FEW200 72 67     84%   73 29.9 29.86      
Jun 17 20:52 E 6 10 Mostly Clear FEW200 FEW250 75 66     74%   76 29.89 29.85      
Jun 17 19:52 E 6 10 Partly Cloudy FEW045 SCT250 81 66     61%   83 29.88 29.83      
Jun 17 18:52 ENE 7 10 Partly Cloudy SCT048 SCT250 83 64     53%   84 29.88 29.84      
Jun 17 17:52 Calm 10 Partly Cloudy FEW049 SCT060 SCT250 83 63     51%   84 29.89 29.85      
Jun 17 16:52 N 6 10 Partly Cloudy SCT050 84 63     49%   85 29.91 29.87      
Jun 17 15:52 N 8 10 Mostly Cloudy SCT040 BKN065 83 64     53%   84 29.93 29.89      
Jun 17 14:52 NNE 7 10 Partly Cloudy SCT040 SCT055 83 65     55%   85 29.94 29.9      
Jun 17 13:52 ENE 7 10 Partly Cloudy SCT042 SCT055 81 65     58%   83 29.95 29.91      
Jun 17 12:52 N 7 10 Mostly Cloudy FEW030 SCT049 BKN055 77 64     64%   77 29.96 29.93     0
Jun 17 11:52 N 9 10 Mostly Cloudy SCT032 BKN040 79 65     62%   80 29.95 29.91      
Jun 17 10:52 N 6 10 Partly Cloudy SCT025 77 66     69%   78 29.94 29.91      
Jun 17 09:52 NNW 8 10 Mostly Cloudy SCT026 BKN032 BKN250 72 67     84%   73 29.94 29.9   0  
Jun 17 09:27 N 8 10 Partly Cloudy SCT026 72 67     84%   73 29.93        
Jun 17 08:52 NNW 5 10 Mostly Cloudy BKN028 BKN250 70 67     90%     29.93 29.9      
Jun 17 07:52 NNW 5 10 Partly Cloudy FEW030 SCT250 67 66     97%     29.91 29.88      
Jun 17 06:52 WNW 3 10 Partly Cloudy FEW035 SCT250 64 64     100%     29.91 29.87      
Jun 17 05:52 NW 5 9 Partly Cloudy FEW035 SCT250 63 63     100%     29.9 29.87      
Jun 17 04:52 SW 3 9 Mostly Cloudy BKN035 BKN150 BKN250 62 62     100%     29.9 29.87      
Jun 17 03:52 SW 3 9 Mostly Cloudy BKN035 BKN250 63 63     100%     29.88 29.85      
Jun 17 02:52 Calm 10 Partly Cloudy SCT150 SCT250 63 63     100%     29.88 29.84      
Jun 17 01:52 NNW 3 10 Partly Cloudy FEW030 SCT150 SCT250 65 65     100%     29.87 29.84      
Jun 17 00:52 Calm 10 Clear   65 65     100%     29.87 29.84      
Jun 16 23:52 Calm 10 Mostly Cloudy FEW050 SCT100 SCT150 BKN250 67 66     97%     29.89 29.85      
Jun 16 22:52 WNW 5 10 Mostly Cloudy FEW055 FEW075 BKN095 BKN150 67 67     100%     29.89 29.85      
Jun 16 21:52 NW 3 10 Cloudy FEW035 SCT080 OVC150 67 67     100%     29.86 29.83      
Jun 16 20:52 Calm 10 Mostly Cloudy FEW035 FEW100 BKN110 BKN200 68 68     100%     29.86 29.83      
Jun 16 19:52 NE 7 10 Cloudy FEW024 SCT035 BKN100 OVC150 70 67     90%     29.84 29.81      
Jun 16 18:52 NNE 11 10 Cloudy FEW015 FEW036 BKN120 OVC150 71 67     87%   72 29.85 29.81 0   0
Jun 16 17:52 NNW 7 10 Light Rain FEW045 SCT090 BKN110 OVC150 69 66     90%     29.86 29.83 0    
Jun 16 17:20 WNW 3 8 Light Rain FEW015 SCT045 BKN060 OVC150 68 67     96%     29.87   0    
Jun 16 16:52 W 6 3 Thunderstorms and Heavy Rain and Fog/Mist FEW009 BKN033 OVC075 67 66     97%     29.88 29.85 0    
Jun 16 16:49 WSW 5 2 Thunderstorms and Heavy Rain and Fog/Mist FEW009 BKN033 OVC075 66 66     100%     29.88   0    
Jun 16 16:46 WSW 7 1.75 Thunderstorms and Heavy Rain and Fog/Mist FEW022 SCT028 OVC080 66 66     100%     29.88   0    
Jun 16 16:09 Calm 8 Thunderstorms and Rain FEW015 SCT030 OVC080 75 66     74%   76 29.84   0    
Jun 16 15:52 Calm 10 Cloudy FEW015 FEW030 BKN085 OVC200 76 65     69%   76 29.84 29.81      
Jun 16 15:17 WNW 5 10 Mostly Cloudy FEW029 BKN070 BKN110 BKN200 76 65     69%   76 29.85        
Jun 16 15:02 Calm 10 Cloudy BKN029 BKN100 OVC200 76 65     69%   76 29.86        
Jun 16 14:52 WNW 5 10 Mostly Cloudy SCT030 BKN100 BKN200 76 66     71%   77 29.86 29.83      
May 14 11:52 S 21 10 Mostly Cloudy and Windy SCT200 BKN250 83 68     61%   86 29.92 29.87      
May 13 16:52 S 15 10 Mostly Cloudy BKN047 BKN250 84 67     57%   87 29.91 29.86      
May 12 18:52 S 16 10 Cloudy FEW050 FEW200 OVC250 82 64     55%   84 29.87 29.83      
May 12 04:52 S 21 10 Mostly Cloudy and Windy SCT150 BKN200 70 60     71%     29.83 29.78      
May 12 01:52 S 25 10 Cloudy and Windy SCT150 OVC200 73 59     61%   73 29.82 29.77      
May 11 20:52 S 15 10 Mostly Cloudy SCT200 BKN250 75 61     62%   75 29.78 29.74      
May 11 16:52   10 Mostly Clear FEW150 FEW250 83 60     46%   83 29.72 29.68      
May 11 15:52 S 30 10 Partly Cloudy and Breezy FEW150 SCT220 83 59     44%   83 29.73 29.69      
May 11 13:52   10 Partly Cloudy FEW150 SCT220 81 62     53%   82 29.78 29.73      
Jun 11 03:52 S 15 10 Clear CLR 72 64     76%   72 29.83 29.78      
Jun 11 00:52 SSE 17 10 Clear CLR 74 64     71%   74 29.84 29.79      
Jun 10 21:52 SSE 15 10 Clear CLR 78 66     67%   79 29.81 29.76      
Jun 10 14:52 S 18 10 Clear CLR 88 66     48%   90 29.81 29.76      
Jun 10 04:52 S 15 10 Clear CLR 68 64     87%     29.8 29.76      
Jun 09 15:52 SSE 14 10 Partly Cloudy SCT040 83 63     51%   84 29.85 29.81      
Jun 08 03:52 Calm 10 Partly Cloudy SCT250 61 52     72%     30.02 29.98      
Jun 07 21:52 E 5 10 Mostly Clear FEW250 70 51     51%     30.02 29.98      
Jun 07 10:52 ENE 10 10 Mostly Cloudy FEW120 SCT150 BKN250 76 49     39%   75 30.07 30.03